Weather History for Springfield, MO

Change the Weather History Date:

Tuesday, February 19, 2013

  Actual Average Record
Temperature  
Mean Temperature 32 °F 38 °F  
Max Temperature 41 °F 49 °F 71 °F (2004)
Min Temperature 23 °F 27 °F -4 °F (1978)
Degree Days  
Heating Degree Days 33 27  
Month to date heating degree days 486 554  
Since 1 July heating degree days 3002 3367  
Cooling Degree Days 0 0  
Month to date cooling degree days 0 0  
Year to date cooling degree days 0 0  
Moisture  
Dew Point 15 °F    
Average Humidity 51    
Maximum Humidity 74    
Minimum Humidity 28    
Precipitation  
Precipitation 0.00 in 0.10 in 2.07 in (1955)
Month to date precipitation 0.88 1.62  
Year to date precipitation 3.94 4.09  
Snow  
Snow 0.00 in - - ()
Month to date snowfall 1.5  
Since 1 July snowfall 3.2  
Snow Depth 0.00 in    
Sea Level Pressure  
Sea Level Pressure 30.24 in    
Wind  
Wind Speed 10 mph (NW)    
Max Wind Speed 23 mph    
Max Gust Speed 28 mph    
Visibility 10 miles    
Events      
T = Trace of Precipitation, MM = Missing Value Source: NWS Daily Summary

Daily Weather History Graph

Daily Weather History Graph

Search for Another Location

Airport:

Trip Planner

Search our weather history database for the weather conditions in past years. The results will help you decide how hot, cold, wet, or windy it might be!

Date:

Astronomy

Feb. 19, 2013 Rise Set
Actual Time 6:57 AM CST 5:57 PM CST
Civil Twilight 6:30 AM CST 6:24 PM CST
Nautical Twilight 6:00 AM CST 6:54 PM CST
Astronomical Twilight 5:30 AM CST 7:24 PM CST
Moon 12:33 PM CST (2/19) 2:25 AM CST (2/19)
Length of Visible Light 11h 53m
Length of Day
11h 00m
Waxing Gibbous, 67% of the Moon is Illuminated
Feb 19
Waxing Gibbous
Feb 25
Full
Mar 4
Last Quarter
Mar 11
New
Mar 19
First Quarter

Hourly Weather History & Observations

Time (CST) Temp. Windchill Dew Point Humidity Pressure Visibility Wind Dir Wind Speed Gust Speed Precip Events Conditions
12:52 AM 30.0 °F 21.7 °F 19.9 °F 66% 30.10 in 10.0 mi WNW 9.2 mph - N/A   Clear
1:52 AM 28.0 °F 19.3 °F 19.0 °F 69% 30.13 in 10.0 mi WNW 9.2 mph - N/A   Clear
2:52 AM 28.0 °F 20.8 °F 18.0 °F 66% 30.13 in 10.0 mi WNW 6.9 mph - N/A   Clear
3:52 AM 26.1 °F 18.4 °F 18.0 °F 71% 30.13 in 10.0 mi West 6.9 mph - N/A   Clear
4:52 AM 25.0 °F 16.3 °F 17.1 °F 72% 30.14 in 10.0 mi NW 8.1 mph - N/A   Clear
5:52 AM 26.1 °F 19.4 °F 17.1 °F 69% 30.17 in 10.0 mi WNW 5.8 mph - N/A   Clear
6:52 AM 25.0 °F 17.1 °F 17.1 °F 72% 30.19 in 10.0 mi West 6.9 mph - N/A   Clear
7:52 AM 27.0 °F 17.3 °F 18.0 °F 69% 30.21 in 10.0 mi NW 10.4 mph - N/A   Clear
8:52 AM 30.0 °F 18.7 °F 18.0 °F 61% 30.23 in 10.0 mi NW 16.1 mph 26.5 mph N/A   Clear
9:52 AM 32.0 °F 20.1 °F 16.0 °F 52% 30.26 in 10.0 mi NW 19.6 mph 24.2 mph N/A   Clear
10:52 AM 35.1 °F 25.5 °F 15.1 °F 44% 30.27 in 10.0 mi NW 15.0 mph 21.9 mph N/A   Clear
12:52 PM 39.0 °F 30.6 °F 12.9 °F 34% 30.29 in 10.0 mi WNW 15.0 mph 23.0 mph N/A   Clear
1:52 PM 39.9 °F 30.8 °F 12.9 °F 33% 30.28 in 10.0 mi NW 18.4 mph - N/A   Clear
2:52 PM 39.9 °F 33.4 °F 10.0 °F 29% 30.28 in 10.0 mi WNW 10.4 mph 21.9 mph N/A   Clear
3:52 PM 41.0 °F 33.1 °F 10.9 °F 29% 30.28 in 10.0 mi NW 15.0 mph 19.6 mph N/A   Clear
4:52 PM 39.0 °F 32.8 °F 12.9 °F 34% 30.27 in 10.0 mi WNW 9.2 mph - N/A   Clear
6:52 PM 32.0 °F 26.4 °F 12.9 °F 45% 30.29 in 10.0 mi West 5.8 mph - N/A   Clear
7:52 PM 28.9 °F 23.9 °F 12.9 °F 51% 30.31 in 10.0 mi NW 4.6 mph - N/A   Clear
8:52 PM 28.0 °F 24.2 °F 12.9 °F 53% 30.28 in 10.0 mi North 3.5 mph - N/A   Clear
9:52 PM 25.0 °F - 12.9 °F 60% 30.32 in 10.0 mi Calm Calm - N/A   Clear
10:52 PM 26.1 °F - 12.0 °F 55% 30.32 in 10.0 mi Calm Calm - N/A   Clear
11:52 PM 27.0 °F 18.7 °F 10.0 °F 49% 30.30 in 10.0 mi NE 8.1 mph - N/A   Clear